Weather History for Fort Leonard Wood, MO

Change the Weather History Date:

Tuesday, November 6, 2012

  Actual Average Record
Temperature  
Mean Temperature 46 °F -  
Max Temperature 51 °F 56 °F 82 °F (1999)
Min Temperature 40 °F 41 °F 27 °F (2010)
Degree Days  
Heating Degree Days 20    
Moisture  
Dew Point 41 °F    
Average Humidity 95    
Maximum Humidity 100    
Minimum Humidity 62    
Precipitation  
Precipitation 0.00 in - - ()
Sea Level Pressure  
Sea Level Pressure 30.04 in    
Wind  
Wind Speed 4 mph (SSW)    
Max Wind Speed 9 mph    
Max Gust Speed -    
Visibility 6 miles    
Events Fog    
Averages and records for this station are not official NWS values.
T = Trace of Precipitation, MM = Missing Value Source: NWS Daily Summary

Daily Weather History Graph

Daily Weather History Graph

Search for Another Location

Airport:

Trip Planner

Search our weather history database for the weather conditions in past years. The results will help you decide how hot, cold, wet, or windy it might be!

Date:

Astronomy

Nov. 06, 2012 Rise Set
Actual Time 6:39 AM CST 5:04 PM CST
Civil Twilight 6:12 AM CST 5:31 PM CST
Nautical Twilight 5:40 AM CST 6:03 PM CST
Astronomical Twilight 5:10 AM CST 6:33 PM CST
Moon 11:42 PM CST (11/6) 12:32 PM CST (11/6)
Length of Visible Light 11h 19m
Length of Day
10h 24m
Waning Gibbous, 53% of the Moon is Illuminated
Nov 6
Waning Gibbous
Nov 6
Last Quarter
Nov 13
New
Nov 20
First Quarter
Nov 28
Full

Hourly Weather History & Observations

Time (CST) Temp. Windchill Dew Point Humidity Pressure Visibility Wind Dir Wind Speed Gust Speed Precip Events Conditions
12:29 AM 41.0 °F 38.0 °F 41.0 °F 100% 30.07 in 10.0 mi East 4.6 mph - N/A   Overcast
12:38 AM 41.0 °F 39.0 °F 41.0 °F 100% 30.07 in 10.0 mi East 3.5 mph - N/A   Overcast
12:48 AM 41.0 °F 37.1 °F 41.0 °F 100% 30.06 in 10.0 mi ESE 5.8 mph - N/A   Overcast
12:55 AM 40.8 °F 37.8 °F 40.5 °F 99% 30.06 in 10.0 mi ESE 4.6 mph - N/A   Overcast
12:56 AM 41.0 °F 38.0 °F 41.0 °F 100% 30.06 in 10.0 mi ESE 4.6 mph - N/A   Overcast
1:15 AM 41.0 °F 38.0 °F 41.0 °F 100% 30.06 in 10.0 mi ESE 4.6 mph - N/A   Overcast
1:55 AM 41.0 °F 39.0 °F 40.8 °F 99% 30.06 in 9.0 mi SE 3.5 mph - N/A   Overcast
2:01 AM 41.0 °F 39.0 °F 41.0 °F 100% 30.06 in 8.0 mi SE 3.5 mph - N/A   Overcast
2:09 AM 41.0 °F 38.0 °F 41.0 °F 100% 30.06 in 8.0 mi SE 4.6 mph - N/A   Overcast
2:30 AM 41.0 °F 39.0 °F 41.0 °F 100% 30.06 in 9.0 mi SE 3.5 mph - N/A   Overcast
2:45 AM 41.0 °F - 41.0 °F 100% 30.06 in 7.0 mi Calm Calm - N/A   Overcast
2:53 AM 41.0 °F - 41.0 °F 100% 30.06 in 7.0 mi Calm Calm - N/A   Overcast
2:55 AM 40.8 °F - 40.6 °F 99% 30.06 in 7.0 mi Calm Calm - N/A   Overcast
3:40 AM 41.0 °F 38.0 °F 41.0 °F 100% 30.06 in 8.0 mi SE 4.6 mph - N/A   Overcast
3:55 AM 41.0 °F 38.0 °F 40.8 °F 99% 30.06 in 8.0 mi SSE 4.6 mph - N/A   Overcast
4:51 AM 41.0 °F 37.1 °F 41.0 °F 100% 30.05 in 2.5 mi SE 5.8 mph - N/A   Overcast
4:55 AM 41.2 °F 37.3 °F 40.8 °F 99% 30.04 in 2.5 mi SE 5.8 mph - N/A   Overcast
4:56 AM 41.0 °F 37.1 °F 41.0 °F 100% 30.04 in 2.0 mi SE 5.8 mph - N/A   Overcast
5:17 AM 41.0 °F 38.0 °F 41.0 °F 100% 30.05 in 2.0 mi South 4.6 mph - N/A   Overcast
5:27 AM 41.0 °F 39.0 °F 41.0 °F 100% 30.05 in 2.0 mi South 3.5 mph - N/A   Overcast
5:29 AM 41.0 °F 39.0 °F 41.0 °F 100% 30.04 in 2.0 mi SSE 3.5 mph - N/A   Overcast
5:33 AM 41.0 °F 39.0 °F 41.0 °F 100% 30.04 in 1.8 mi SSE 3.5 mph - N/A   Overcast
5:44 AM 41.0 °F 39.0 °F 41.0 °F 100% 30.04 in 1.5 mi South 3.5 mph - N/A   Overcast
5:53 AM 41.0 °F - 41.0 °F 100% 30.04 in 1.8 mi Calm Calm - N/A   Overcast
5:55 AM 41.0 °F 39.0 °F 41.0 °F 100% 30.05 in 1.8 mi SSW 3.5 mph - N/A   Overcast
5:56 AM 41.0 °F 39.0 °F 41.0 °F 100% 30.05 in 2.0 mi SW 3.5 mph - N/A   Overcast
6:04 AM 41.0 °F 39.0 °F 41.0 °F 100% 30.05 in 1.8 mi SSW 3.5 mph - N/A   Overcast
6:06 AM 41.0 °F - 41.0 °F 100% 30.04 in 1.5 mi Calm Calm - N/A   Overcast
6:23 AM 41.0 °F 39.0 °F 41.0 °F 100% 30.05 in 1.2 mi SW 3.5 mph - N/A   Overcast
6:29 AM 41.0 °F 39.0 °F 41.0 °F 100% 30.04 in 1.0 mi South 3.5 mph - N/A   Mist
6:32 AM 41.0 °F - 41.0 °F 100% 30.05 in 1.0 mi Calm Calm - N/A   Mist
6:36 AM 41.0 °F - 41.0 °F 100% 30.04 in 1.0 mi Calm Calm - N/A   Mist
6:39 AM 41.0 °F - 41.0 °F 100% 30.04 in 0.8 mi Calm Calm - N/A   Mist
6:44 AM 41.0 °F 39.0 °F 41.0 °F 100% 30.05 in 0.5 mi WSW 3.5 mph - N/A Fog Fog
6:46 AM 41.0 °F - 41.0 °F 100% 30.05 in 0.5 mi Calm Calm - N/A Fog Fog
6:53 AM 41.0 °F 39.0 °F 41.0 °F 100% 30.07 in 0.5 mi West 3.5 mph - N/A Fog Fog
6:55 AM 41.4 °F 39.4 °F 41.4 °F 100% 30.06 in 0.5 mi West 3.5 mph - N/A Fog Fog
6:57 AM 41.0 °F - 41.0 °F 100% 30.06 in 0.2 mi Calm Calm - N/A Fog Fog
6:59 AM 41.0 °F - 41.0 °F 100% 30.07 in 0.2 mi Calm Calm - N/A Fog Fog
7:02 AM 41.0 °F 39.0 °F 41.0 °F 100% 30.07 in 0.2 mi West 3.5 mph - N/A Fog Fog
7:07 AM 41.0 °F - 41.0 °F 100% 30.06 in 0.5 mi Calm Calm - N/A Fog Fog
7:12 AM 41.0 °F - 41.0 °F 100% 30.06 in 0.5 mi Calm Calm - N/A Fog Fog
7:24 AM 41.0 °F - 41.0 °F 100% 30.06 in 0.8 mi Calm Calm - N/A   Mist
7:31 AM 41.0 °F - 41.0 °F 100% 30.06 in 0.8 mi Calm Calm - N/A   Mist
7:32 AM 41.0 °F - 41.0 °F 100% 30.06 in 1.0 mi Calm Calm - N/A   Mist
7:36 AM 41.0 °F - 41.0 °F 100% 30.06 in 1.2 mi Calm Calm - N/A   Overcast
7:39 AM 41.0 °F 39.0 °F 41.0 °F 100% 30.06 in 1.5 mi South 3.5 mph - N/A   Overcast
7:40 AM 41.0 °F 39.0 °F 41.0 °F 100% 30.06 in 1.8 mi South 3.5 mph - N/A   Overcast
7:42 AM 41.0 °F 39.0 °F 41.0 °F 100% 30.06 in 2.0 mi Variable 3.5 mph - N/A   Overcast
7:54 AM 42.8 °F 41.1 °F 42.8 °F 100% 30.05 in 3.0 mi South 3.5 mph - N/A   Overcast
7:55 AM 42.1 °F 39.2 °F 42.1 °F 100% 30.05 in 3.0 mi Variable 4.6 mph - N/A   Overcast
8:04 AM 42.8 °F 41.1 °F 42.8 °F 100% 30.04 in 4.0 mi Variable 3.5 mph - N/A   Overcast
8:17 AM 42.8 °F 40.1 °F 42.8 °F 100% 30.04 in 4.0 mi South 4.6 mph - N/A   Overcast
8:55 AM 42.6 °F 40.9 °F 42.6 °F 100% 30.05 in 6.0 mi Variable 3.5 mph - N/A   Overcast
9:06 AM 42.8 °F 40.1 °F 42.8 °F 100% 30.05 in 8.0 mi Variable 4.6 mph - N/A   Overcast
9:15 AM 42.8 °F 41.1 °F 42.8 °F 100% 30.05 in 10.0 mi Variable 3.5 mph - N/A   Overcast
9:25 AM 42.8 °F 40.1 °F 42.8 °F 100% 30.05 in 10.0 mi WSW 4.6 mph - N/A   Overcast
9:26 AM 42.8 °F 39.3 °F 42.8 °F 100% 30.05 in 10.0 mi WSW 5.8 mph - N/A   Overcast
9:27 AM 42.8 °F 39.3 °F 42.8 °F 100% 30.05 in 10.0 mi SW 5.8 mph - N/A   Overcast
9:28 AM 42.8 °F 40.1 °F 42.8 °F 100% 30.05 in 10.0 mi WSW 4.6 mph - N/A   Overcast
9:37 AM 42.8 °F 40.1 °F 42.8 °F 100% 30.06 in 10.0 mi WSW 4.6 mph - N/A   Overcast
9:44 AM 42.8 °F 39.3 °F 42.8 °F 100% 30.06 in 10.0 mi Variable 5.8 mph - N/A   Overcast
9:55 AM 43.0 °F 40.3 °F 42.8 °F 99% 30.05 in 10.0 mi Variable 4.6 mph - N/A   Overcast
10:29 AM 42.8 °F 39.3 °F 42.8 °F 100% 30.05 in 10.0 mi WSW 5.8 mph - N/A   Overcast
10:37 AM 42.8 °F 38.6 °F 42.8 °F 100% 30.06 in 10.0 mi WSW 6.9 mph - N/A   Overcast
10:42 AM 42.8 °F 40.1 °F 42.8 °F 100% 30.06 in 10.0 mi Variable 4.6 mph - N/A   Overcast
10:55 AM 43.3 °F 40.7 °F 42.6 °F 97% 30.04 in 10.0 mi SSW 4.6 mph - N/A   Overcast
11:23 AM 42.8 °F 39.3 °F 42.8 °F 100% 30.05 in 10.0 mi Variable 5.8 mph - N/A   Overcast
11:38 AM 44.6 °F 40.2 °F 42.8 °F 93% 30.04 in 10.0 mi WSW 8.1 mph - N/A   Overcast
11:50 AM 44.6 °F 39.7 °F 42.8 °F 93% 30.03 in 10.0 mi WSW 9.2 mph - N/A   Overcast
11:55 AM 44.2 °F 39.7 °F 41.9 °F 91% 30.02 in 10.0 mi West 8.1 mph - N/A   Overcast
12:55 PM 46.4 °F 43.5 °F 42.4 °F 86% 29.99 in 10.0 mi Variable 5.8 mph - N/A   Overcast
1:29 PM 46.4 °F 41.9 °F 41.0 °F 81% 29.99 in 10.0 mi West 9.2 mph - N/A   Overcast
1:55 PM 46.0 °F 41.9 °F 41.5 °F 84% 29.98 in 10.0 mi West 8.1 mph - N/A   Overcast
2:39 PM 48.2 °F - 42.8 °F 82% 29.96 in 10.0 mi West 8.1 mph - N/A   Overcast
2:41 PM 48.2 °F - 42.8 °F 82% 29.96 in 10.0 mi West 6.9 mph - N/A   Overcast
2:55 PM 48.7 °F - 42.6 °F 79% 29.96 in 10.0 mi West 6.9 mph - N/A   Mostly Cloudy
2:58 PM 48.2 °F - 42.8 °F 82% 29.96 in 10.0 mi WSW 6.9 mph - N/A   Mostly Cloudy
3:25 PM 50.0 °F - 42.8 °F 76% 29.96 in 10.0 mi West 8.1 mph - N/A   Scattered Clouds
3:55 PM 51.1 °F - 43.0 °F 74% 29.96 in 10.0 mi Variable 4.6 mph - N/A   Clear
4:55 PM 49.6 °F - 42.4 °F 76% 29.96 in 10.0 mi Calm Calm - N/A   Partly Cloudy
5:55 PM 47.8 °F - 42.3 °F 81% 29.99 in 10.0 mi North 4.6 mph - N/A   Mostly Cloudy
6:55 PM 46.8 °F - 41.2 °F 81% 30.00 in 10.0 mi WNW 3.5 mph - N/A   Mostly Cloudy
7:55 PM 48.0 °F - 37.4 °F 67% 30.01 in 10.0 mi West 4.6 mph - N/A   Overcast
8:55 PM 47.3 °F - 36.0 °F 65% 30.01 in 10.0 mi West 4.6 mph - N/A   Overcast
9:55 PM 47.7 °F - 35.2 °F 62% 30.00 in 10.0 mi West 4.6 mph - N/A   Overcast
10:55 PM 45.3 °F 42.3 °F 34.7 °F 66% 30.00 in 10.0 mi West 5.8 mph - N/A   Partly Cloudy
11:55 PM 44.4 °F 41.2 °F 34.3 °F 68% 30.00 in 10.0 mi West 5.8 mph - N/A   Clear